This is the latest recevied weather packets stored in our database for station/object OE5ERN-10. If no packets are shown the sender has not sent any weather packets the latest 10 day(s).
| Time | Temp. | Humidity | Pressure | Rain* | Wind** | Luminosity | Snow |
|---|---|---|---|---|---|---|---|
| 1788157665 | 65° F | 84% | 764.6 mmHg | 0 in | - | - | - |
| 1788156765 | 66° F | 84% | 765.2 mmHg | 0 in | - | - | - |
| 1788155865 | 64° F | 83% | 765.4 mmHg | 0 in | - | - | - |
| 1788154965 | 64° F | 83% | 764.5 mmHg | 0 in | - | - | - |
| 1788154065 | 63° F | 83% | 764 mmHg | 0 in | - | - | - |
| 1788153165 | 63° F | 83% | 763.9 mmHg | 0 in | - | - | - |
| 1788152265 | 63° F | 83% | 763.9 mmHg | 0.02 in | - | - | - |
| 1788151365 | 63° F | 83% | 763.8 mmHg | 0.1 in | - | - | - |
| 1788150465 | 63° F | 83% | 763.6 mmHg | 0.12 in | - | - | - |
| 1788149565 | 63° F | 83% | 763.6 mmHg | 0.12 in | - | - | - |
| 1788148665 | 63° F | 83% | 763.9 mmHg | 0.1 in | - | - | - |
| 1788147765 | 64° F | 82% | 764.3 mmHg | 0.02 in | - | - | - |
| 1788146865 | 64° F | 79% | 763.9 mmHg | 0 in | - | - | - |
| 1788145965 | 66° F | 75% | 764.1 mmHg | 0 in | - | - | - |
| 1788145065 | 67° F | 73% | 764.2 mmHg | 0 in | - | - | - |
| 1788144165 | 67° F | 73% | 764.2 mmHg | 0 in | - | - | - |
| 1788143265 | 67° F | 72% | 764.3 mmHg | 0 in | - | - | - |
| 1788142365 | 67° F | 72% | 764.2 mmHg | 0 in | - | - | - |
| 1788141465 | 66° F | 72% | 764 mmHg | 0 in | - | - | - |
| 1788140565 | 67° F | 70% | 763.9 mmHg | 0 in | - | - | - |
| 1788139665 | 67° F | 70% | 763.6 mmHg | 0 in | - | - | - |
| 1788138765 | 67° F | 69% | 763.8 mmHg | 0 in | - | - | - |
| 1788137865 | 67° F | 70% | 763.9 mmHg | 0 in | - | - | - |
| 1788136965 | 67° F | 70% | 764 mmHg | 0 in | - | - | - |
| 1788136065 | 67° F | 70% | 764.2 mmHg | 0 in | - | - | - |
* Rain latest hour (hover to see other rain measurements)
** Current wind speed in m/s (hover to see current wind gust speed)